Regional Weather Roundup
Issued by NWS

Home | Current Version | Previous Version | Graphics & Text | Print | Product List | Glossary On
Versions: 1 2 3 4 5 6 7 8 9 10 11 12 13 14 15 16 17 18 19 20 21 22 23 24 25 26 27 28 29 30 31 32 33 34 35 36 37 38 39 40 41 42 43 44 45 46 47 48 49 50
000
ASUS43 KFSD 202302
RWRSD

WEATHER ROUNDUP FOR SOUTH DAKOTA
NATIONAL WEATHER SERVICE SIOUX FALLS SD
500 PM CST TUE FEB 20 2018

NOTE: "FAIR" INDICATES FEW OR NO CLOUDS BELOW 12,000 FEET WITH NO
SIGNIFICANT WEATHER AND/OR OBSTRUCTIONS TO VISIBILITY.


SDZ001>005-009-010-012>017-210000-
NORTHWEST AND NORTH CENTRAL SOUTH DAKOTA

CITY           SKY/WX    TMP DP  RH WIND       PRES   REMARKS
BUFFALO          N/A      2  -6  69 SW9       30.04R WCI -13
FAITH            N/A      1  -5  75 W12       30.17R WCI -16
MOBRIDGE       FAIR      11  -1  58 W12       30.19R WCI  -3
$$

SDZ012>016-024>037-041>051-057-063-072>074-210000-
SOUTHWEST AND SOUTH CENTRAL SOUTH DAKOTA

CITY           SKY/WX    TMP DP  RH WIND       PRES   REMARKS
RAPID CTY ARPT FAIR       0  -6  76 S9        30.15R WCI -15
PIERRE         FAIR       7  -1  70 W14       30.26R WCI -10
CUSTER         FAIR       8  -6  52 W12       29.91R WCI  -7
ELLSWORTH AFB  FAIR       3  -5  68 S7        30.13R WCI  -9
PHILIP         FAIR       5  -4  66 W8        30.26R WCI  -8
PINE RIDGE     FAIR       6  -4  63 SW7       30.16R WCI  -6
SPEARFISH        N/A      7  -8  51 NW8       30.07R WCI  -6
WINNER         FAIR       9  -1  64 NW10      30.27R WCI  -5
$$

SDZ004>011-016>023-039-040-210000-
NORTHEAST SOUTH DAKOTA

CITY           SKY/WX    TMP DP  RH WIND       PRES   REMARKS
ABERDEEN       FAIR      12   1  61 NW14      30.24R WCI  -3
WATERTOWN      MOCLDY     8   1  73 NW14      30.18R WCI  -8
BROOKINGS      FAIR       9   1  70 NW15      30.22R WCI  -8
SISSETON         N/A     11   1  64 NW16      30.20R WCI  -6
$$

SDZ017-020-022-023-036>040-048>070-210000-
SOUTHEAST SOUTH DAKOTA

CITY           SKY/WX    TMP DP  RH WIND       PRES   REMARKS
SIOUX FALLS    FAIR      11   3  70 NW15      30.24R WCI  -5
HURON          FAIR      11   2  67 NW14      30.28R WCI  -5
CHAMBERLAIN    FAIR      11   2  68 W13       30.29R WCI  -4
MITCHELL       FAIR      11   3  70 NW13      30.31R WCI  -4
YANKTON        FAIR      11   4  73 W16       30.29R WCI  -6
$$

ABBREVIATIONS USED IN REMARKS
   TC - TEMPERATURE IN CELSIUS
  WCI - WIND CHILL INDEX
   HX - HEAT INDEX
  VSB - VISIBILITY





USA.gov is the U.S. government's official web portal to all federal, state and local government web resources and services.